Regional Weather Roundup
Issued by NWS

Home | Current Version | Previous Version | Graphics & Text | Print | Product List | Glossary On
Versions: 1 2 3 4 5 6 7 8 9 10 11 12 13 14 15 16 17 18 19 20 21 22 23 24 25 26 27 28 29 30 31 32 33 34 35 36 37 38 39 40 41 42 43 44 45 46 47 48 49 50
000
ASUS43 KMKX 160911
RWRWI

WISCONSIN REGIONAL WEATHER ROUNDUP
NATIONAL WEATHER SERVICE MILWAUKEE/SULLIVAN WI
300 AM CST MON JAN 16 2017

NOTE: "FAIR" INDICATES FEW OR NO CLOUDS BELOW 12,000 FEET WITH NO
SIGNIFICANT WEATHER AND/OR OBSTRUCTIONS TO VISIBILITY.

WIZ001-002-006>008-014>016-023>028-161000-
NORTHWEST WISCONSIN

CITY           SKY/WX    TMP DP  RH WIND       PRES   REMARKS
SUPERIOR ARPT  CLOUDY    18  16  90 W6        30.17S WCI  10
ASHLAND        CLOUDY    20  14  77 S7        30.18R WCI  11
HAYWARD        CLOUDY     3  -2  79 CALM      30.17F
SIREN          CLOUDY     5   3  88 CALM      30.18F
CUMBERLAND     CLOUDY    12   9  85 SE3       30.19S FOG
RICE LAKE      CLOUDY     0  -4  82 SE3       30.22S
CHETEK         CLOUDY     0  -3  86 CALM      30.22S
LADYSMITH      CLOUDY     4   1  87 CALM      30.23R
EAU CLAIRE     CLOUDY     7   4  87 CALM      30.22S FOG
MENOMONIE      CLOUDY     5   1  86 CALM      30.22S
NEW RICHMOND   CLOUDY    11   8  87 CALM      30.20S FOG
OSCEOLA        CLOUDY    14  11  91 E3        30.22F
$$

WIZ003>005-009-010-017-018-161000-
NORTH CENTRAL WISCONSIN

CITY           SKY/WX    TMP DP  RH WIND       PRES   REMARKS
MANITOWISH WTR CLOUDY    11  11  98 SW3       30.15F
ARBOR VITAE    CLOUDY    11   9  90 S5        30.16F WCI   3
WOODRUFF       CLOUDY    11   9  90 S5        30.16F WCI   3
RHINELANDER    CLOUDY    11   8  88 CALM      30.18S
EAGLE RIVER    CLOUDY    12   8  86 CALM      30.15F
LAND O LAKES   CLOUDY     2  -1  85 SW3       30.16S
PHILLIPS       CLOUDY     5   4  94 CALM      30.18S
TOMAHAWK       CLOUDY    -1  -4  86 CALM      30.20S
MEDFORD        CLOUDY     9   6  89 CALM      30.19S
MERRILL        CLOUDY    -4  -9  79 CALM        N/A
$$

WIZ029-030-035-036-043>047-161000-
CENTRAL WISCONSIN

CITY           SKY/WX    TMP DP  RH WIND       PRES   REMARKS
WAUSAU         CLOUDY     3   0  87 CALM      30.21S
MOSINEE        CLOUDY    12  12 100 CALM      30.23S
MARSHFIELD     CLOUDY    14  10  84 SW5       30.20S WCI   6
STEVENS POINT  CLOUDY     1  -2  85 CALM      30.24S
WAUPACA        CLOUDY     9   5  84 CALM      30.26S
WAUTOMA        CLOUDY     8   5  87 CALM      30.26F
WISC RAPIDS    CLOUDY     8   5  87 CALM      30.24F
CAMP DOUGLAS   CLOUDY    12   9  87 CALM      30.23S
$$

WIZ011>013-019>022-031-037>040-048>050-161000-
NORTHEAST WISCONSIN

CITY           SKY/WX    TMP DP  RH WIND       PRES   REMARKS
ANTIGO         CLOUDY    -2  -6  86 CALM      30.20S
SHAWANO        CLOUDY    10   7  87 CALM      30.26S
OCONTO         CLOUDY     6   3  87 CALM      30.26R
STURGEON BAY   CLOUDY    21  14  74 SW6       30.25S WCI  13
GREEN BAY      CLOUDY    17  13  84 SW8       30.26S WCI   7
MANITOWOC      CLOUDY    10   7  87 CALM      30.27F
APPLETON       CLOUDY    19  12  73 SW6       30.23F WCI  11
CLINTONVILLE   CLOUDY     5   1  85 CALM      30.25S
OSHKOSH        CLOUDY    19  13  77 CALM      30.25F
$$

WIZ032>034-041-042-053>061-161000-
SOUTHWEST WISCONSIN

CITY           SKY/WX    TMP DP  RH WIND       PRES   REMARKS
LA CROSSE      CLOUDY   N/A N/A N/A SE3       30.26R
SPARTA         CLOUDY    10   8  93 CALM      30.26S
VIROQUA        CLOUDY    26  18  72 CALM      30.22R
BOSCOBEL       CLOUDY    24  19  81 CALM      30.27F
PRAIRIE DU CHI CLOUDY    24  19  78 CALM      30.26F
PLATTEVILLE    CLOUDY    29  22  74 SE3       30.25S
$$

WIZ056-057-062-063-064-067-068-161000-
SOUTH CENTRAL WISCONSIN

CITY           SKY/WX    TMP DP  RH WIND       PRES   REMARKS
REEDSBURG      CLOUDY    18  15  90 CALM      30.25S
BARABOO/DELLS  CLOUDY    20  16  83 CALM      30.24S
LONE ROCK      CLOUDY    22  18  85 CALM      30.27S
MINERAL POINT  CLOUDY    30  23  74 SE3       30.24S
MADISON        CLOUDY    23  19  85 CALM      30.26S
MIDDLETON      CLOUDY    25  22  88 CALM      30.26S
WATERTOWN      CLOUDY    22  20  93 CALM      30.26F
MONROE         PTCLDY    28  21  74 CALM      30.25S
JANESVILLE     CLOUDY    28  23  80 CALM      30.26S
$$

WIZ051-052-058>065-066-070>072-161000-
SOUTHEAST WISCONSIN

CITY           SKY/WX    TMP DP  RH WIND       PRES   REMARKS
MILWAUKEE      CLOUDY    24  18  77 CALM      30.27F
WAUKESHA       PTCLDY    23  19  86 CALM      30.27F
MILWAUKEE/TIMM PTCLDY    23  18  80 CALM      30.28F
RACINE         CLOUDY    23  18  81 CALM      30.29F
KENOSHA        CLOUDY    25  19  78 CALM      30.28S HAZE
FOND DU LAC    CLOUDY    17  11  77 S3        30.26F
SHEBOYGAN      PTCLDY    14   9  80 CALM      30.27S
WEST BEND      PTCLDY    16  16 100 CALM      30.26F
JUNEAU         CLOUDY    19  16  85 E6        30.26F WCI  11
$$

LSZ147-162-161000-
LAKE SUPERIOR

STATION/POSITION TIME  TEMP    WIND        PRES    WAVE
                       AIR SEA DIR/SP/G            HT/PER
                 (UTC) (F)     (DEG/KT/KT) (MB)    (FT/S)
DEVILS ISLAND    0900   27     220/ 17/ 20 1021.7S
PORT WING        0840   22     200/  6/  9 1021.7S
SAXON HARBOR     0840   24     200/  6/ 11 1021.7R
$$

LMZ867-665-643>646-161000-
LAKE MICHIGAN

STATION/POSITION TIME  TEMP    WIND        PRES    WAVE
                       AIR SEA DIR/SP/G            HT/PER
                 (UTC) (F)     (DEG/KT/KT) (MB)    (FT/S)
NORTHPORT PIER   0840   24     220/  3/  5 1024.0S
SISTER BAY       0850   23     240/  5/  7   N/A
ALGOMA LAKESHORE 0853             CALM       N/A
KEWAUNEE LAKESHO 0848   19     320/  3/  5 1024.1F
SHEBOYGAN LAKESH 0900   25     220/  3/  4 1025.9F
PORT WASHINGTON  0840   23     230/  2/  4 1026.4S
MILWAUKEE LAKESH 0850   30     200/  2/  2   N/A
KENOSHA   LAKESH 0900   29        CALM     1025.4
$$

TC  - TEMPERATURE IN CELSIUS
VSB - VISIBILITY IN STATUTE MILES
WCI - WIND CHILL INDEX
HX  - HEAT INDEX




USA.gov is the U.S. government's official web portal to all federal, state and local government web resources and services.